Nuiqsut, AK

10:24 AM AKDT on October 20, 2017 (GMT -0800)
Nuiqsut

Weather History for PAQT - April, 2014

Change the Weather History Date:

Friday, April 18, 2014

  Actual Average (PAKU) Record (PAKU)
Temperature  
Mean Temperature 10 °F -  
Max Temperature 17 °F 7 °F 36 °F (1988)
Min Temperature 3 °F 0 °F -22 °F (1985)
Degree Days  
Heating Degree Days 55    
Moisture  
Dew Point 12 °F    
Average Humidity 92    
Maximum Humidity 100    
Minimum Humidity 84    
Precipitation  
Precipitation 0.00 in - - ()
Sea Level Pressure  
Sea Level Pressure 29.87 in    
Wind  
Wind Speed 6 mph (NNE)    
Max Wind Speed 12 mph    
Max Gust Speed -    
Visibility 6 miles    
Events Fog , Snow    
Averages and records for this station are not official NWS values.
T = Trace of Precipitation, MM = Missing Value Source: NWS Daily Summary

Daily Weather History Graph

Daily Weather History Graph

Search for Another Location

Airport or City:

Trip Planner

Search our weather history database for the weather conditions in past years. The results will help you decide how hot, cold, wet, or windy it might be!

Date:

Astronomy

Apr. 18, 2014 Rise Set
Actual Time 5:41 AM AKDT 10:28 PM AKDT
Civil Twilight 4:10 AM AKDT 12:02 AM AKDT
Nautical Twilight Sun does not rise Sun does not rise
Astronomical Twilight Sun does not rise Sun does not rise
Moon 3:17 AM AKDT (4/18) 6:13 AM AKDT (4/18)
Length of Visible Light 19h 51m
Length of Day
16h 46m
Waning Gibbous, 86% of the Moon is Illuminated
Apr 18
Waning Gibbous
Apr 21
Last Quarter
Apr 28
New
May 6
First Quarter
May 14
Full

Hourly Weather History & Observations

Time (AKDT) Temp. Windchill Dew Point Humidity Pressure Visibility Wind Dir Wind Speed Gust Speed Precip Events Conditions
12:53 AM 17.1 °F 11.7 °F 16.0 °F 96% 29.83 in 5.0 mi North 3.5 mph - 0.00 in Snow Light Snow
1:24 AM 17.1 °F - 17.1 °F 100% 29.82 in 6.0 mi Calm Calm - 0.00 in Snow Light Snow
1:49 AM 17.6 °F - 17.6 °F 100% 29.82 in 5.0 mi Calm Calm - 0.00 in Snow Light Snow
1:53 AM 17.1 °F - 17.1 °F 100% 29.83 in 4.0 mi Calm Calm - 0.00 in Snow Light Snow
2:53 AM 16.0 °F 10.4 °F 16.0 °F 100% 29.82 in 9.0 mi North 3.5 mph - 0.00 in   Overcast
3:00 AM 16.0 °F 8.8 °F 16.0 °F 100% 29.82 in 9.0 mi North 4.6 mph - 0.00 in   Overcast
3:25 AM 16.0 °F 8.8 °F 15.1 °F 96% 29.82 in 2.5 mi North 4.6 mph - 0.00 in Snow Light Snow
3:33 AM 16.0 °F 8.8 °F 15.1 °F 96% 29.82 in 3.0 mi NNE 4.6 mph - 0.00 in Snow Light Snow
3:53 AM 16.0 °F 6.3 °F 15.1 °F 96% 29.83 in 7.0 mi NE 6.9 mph - 0.00 in Snow Light Snow
4:53 AM 16.0 °F 6.3 °F 15.1 °F 96% 29.83 in 10.0 mi North 6.9 mph - 0.00 in   Overcast
5:53 AM 15.1 °F 5.2 °F 14.0 °F 95% 29.83 in 4.0 mi NE 6.9 mph - 0.00 in Snow Light Snow
6:21 AM 15.1 °F 4.2 °F 14.0 °F 95% 29.83 in 2.5 mi NNE 8.1 mph - 0.00 in Snow Light Snow
6:28 AM 15.1 °F 5.2 °F 14.0 °F 95% 29.83 in 3.0 mi NNE 6.9 mph - 0.00 in Snow Light Snow
6:53 AM 15.1 °F 5.2 °F 14.0 °F 95% 29.83 in 6.0 mi NE 6.9 mph - 0.00 in Snow Light Snow
7:53 AM 15.1 °F 6.4 °F 14.0 °F 95% 29.84 in 4.0 mi NNE 5.8 mph - 0.00 in Snow Light Snow
8:53 AM 15.1 °F 3.3 °F 12.9 °F 91% 29.85 in 4.0 mi NNE 9.2 mph - 0.00 in Snow Light Snow
9:40 AM 15.1 °F 2.5 °F 12.9 °F 91% 29.85 in 2.5 mi NNE 10.4 mph - 0.00 in Snow Light Snow
9:49 AM 15.8 °F 3.4 °F 12.2 °F 86% 29.85 in 4.0 mi NNE 10.4 mph - 0.00 in Snow Light Snow
9:53 AM 15.1 °F 3.3 °F 12.9 °F 91% 29.85 in 3.0 mi NNE 9.2 mph - 0.00 in Snow Light Snow
10:00 AM 15.1 °F 4.2 °F 12.9 °F 91% 29.85 in 2.0 mi NNE 8.1 mph - 0.00 in Snow Light Snow
10:16 AM 15.1 °F 4.2 °F 12.9 °F 91% 29.85 in 3.0 mi NNE 8.1 mph - 0.00 in Snow Light Snow
10:53 AM 15.1 °F 4.2 °F 12.0 °F 88% 29.86 in 6.0 mi NNE 8.1 mph - 0.00 in   Overcast
11:41 AM 15.1 °F 1.8 °F 12.0 °F 88% 29.86 in 4.0 mi NNE 11.5 mph - 0.00 in Snow Light Snow
11:53 AM 15.1 °F 2.5 °F 12.0 °F 88% 29.87 in 4.0 mi NNE 10.4 mph - 0.00 in Snow Light Snow
1:45 PM 15.1 °F 3.3 °F 10.9 °F 84% 29.87 in 0.8 mi NNE 9.2 mph - 0.00 in Snow Light Snow
1:53 PM 15.1 °F 3.3 °F 10.9 °F 84% 29.88 in 0.5 mi NE 9.2 mph - 0.00 in Fog , Snow Light Snow
1:55 PM 15.1 °F 4.2 °F 10.9 °F 84% 29.87 in 2.5 mi NE 8.1 mph - 0.00 in Snow Light Snow
2:02 PM 15.1 °F 4.2 °F 12.0 °F 88% 29.87 in 5.0 mi NNE 8.1 mph - 0.00 in   Overcast
2:53 PM 15.1 °F 3.3 °F 12.0 °F 88% 29.89 in 4.0 mi NE 9.2 mph - 0.00 in   Overcast
3:35 PM 16.0 °F 4.4 °F 12.9 °F 88% 29.89 in 5.0 mi NNE 9.2 mph - 0.00 in Snow Light Snow
3:48 PM 15.8 °F 4.2 °F 12.2 °F 86% 29.89 in 8.0 mi NNE 9.2 mph - 0.00 in   Overcast
4:22 PM 15.1 °F 1.8 °F 12.0 °F 88% 29.89 in 4.0 mi NE 11.5 mph - 0.00 in Snow Light Snow
4:53 PM 14.0 °F 2.9 °F 10.9 °F 88% 29.90 in 10.0 mi NNE 8.1 mph - 0.00 in   Scattered Clouds
5:53 PM 12.0 °F -1.3 °F 9.0 °F 88% 29.90 in 10.0 mi NE 10.4 mph - N/A   Clear
6:53 PM 10.0 °F -0.9 °F 7.0 °F 87% 29.91 in 10.0 mi NNE 6.9 mph - 0.00 in   Clear
7:13 PM 10.0 °F -2.9 °F 7.0 °F 87% 29.90 in 10.0 mi NNE 9.2 mph - N/A   Mostly Cloudy
7:53 PM 10.0 °F -0.9 °F 8.1 °F 92% 29.91 in 8.0 mi NNE 6.9 mph - 0.00 in   Overcast
8:53 PM 10.0 °F -1.9 °F 8.1 °F 92% 29.92 in 9.0 mi NNE 8.1 mph - 0.00 in   Overcast
9:53 PM 9.0 °F -3.2 °F 7.0 °F 92% 29.93 in 9.0 mi NNE 8.1 mph - 0.00 in   Overcast
10:53 PM 7.0 °F -5.7 °F 5.0 °F 92% 29.94 in 8.0 mi NNE 8.1 mph - 0.00 in   Overcast
11:22 PM 3.9 °F -8.2 °F 1.9 °F 91% 29.94 in 9.0 mi North 6.9 mph - 0.00 in   Overcast
11:53 PM 3.9 °F -9.4 °F 3.0 °F 96% 29.95 in 10.0 mi North 8.1 mph - 0.00 in   Overcast